Weather History for KIRS - May, 2013

Change the Weather History Date:

Monday, May 13, 2013

  Actual Average (KHAI) Record (KHAI)
Temperature  
Mean Temperature 42 °F -  
Max Temperature 55 °F 70 °F 88 °F (1956)
Min Temperature 30 °F 45 °F 28 °F (2013)
Degree Days  
Heating Degree Days 22    
Moisture  
Dew Point 27 °F    
Average Humidity 58    
Maximum Humidity 100    
Minimum Humidity 26    
Precipitation  
Precipitation 0.00 in - - ()
Sea Level Pressure  
Sea Level Pressure 30.13 in    
Wind  
Wind Speed 2 mph (NW)    
Max Wind Speed 15 mph    
Max Gust Speed 23 mph    
Visibility 10 miles    
Events      
Averages and records for this station are not official NWS values.
T = Trace of Precipitation, MM = Missing Value Source: NWS Daily Summary

Daily Weather History Graph

Daily Weather History Graph

Search for Another Location

Airport or City:

Trip Planner

Search our weather history database for the weather conditions in past years. The results will help you decide how hot, cold, wet, or windy it might be!

Date:

Astronomy

May. 13, 2013 Rise Set
Actual Time 6:23 AM EDT 8:53 PM EDT
Civil Twilight 5:51 AM EDT 9:24 PM EDT
Nautical Twilight 5:12 AM EDT 10:04 PM EDT
Astronomical Twilight 4:28 AM EDT 10:48 PM EDT
Moon 9:08 AM EDT (5/13) No Moon Set
Length of Visible Light 15h 32m
Length of Day
14h 29m
Waxing Crescent, 12% of the Moon is Illuminated
May 13
Waxing Crescent
May 18
First Quarter
May 25
Full
May 31
Last Quarter
Jun 8
New

Hourly Weather History & Observations

Time (EDT) Temp. Dew Point Humidity Pressure Visibility Wind Dir Wind Speed Gust Speed Precip Events Conditions
12:15 AM 33.8 °F 30.2 °F 87% 30.10 in 10.0 mi Calm Calm - N/A   Clear
12:35 AM 33.8 °F 28.4 °F 81% 30.10 in 10.0 mi Calm Calm - N/A   Mostly Cloudy
12:54 AM 33.8 °F 30.2 °F 87% 30.10 in 10.0 mi Calm Calm - N/A   Overcast
1:15 AM 33.8 °F 32.0 °F 93% 30.10 in 10.0 mi Calm Calm - N/A   Overcast
1:35 AM 35.6 °F 32.0 °F 87% 30.11 in 10.0 mi Calm Calm - N/A   Overcast
1:54 AM 35.6 °F 32.0 °F 87% 30.11 in 10.0 mi Calm Calm - N/A   Overcast
2:15 AM 35.6 °F 33.8 °F 93% 30.11 in 10.0 mi Calm Calm - N/A   Overcast
2:34 AM 35.6 °F 32.0 °F 87% 30.11 in 10.0 mi Calm Calm - N/A   Overcast
2:55 AM 35.6 °F 32.0 °F 87% 30.11 in 10.0 mi Calm Calm - N/A   Overcast
3:15 AM 35.6 °F 32.0 °F 87% 30.11 in 10.0 mi Calm Calm - N/A   Overcast
3:34 AM 35.6 °F 32.0 °F 87% 30.11 in 10.0 mi Calm Calm - N/A   Overcast
3:55 AM 33.8 °F 32.0 °F 93% 30.12 in 10.0 mi Calm Calm - N/A   Mostly Cloudy
4:14 AM 35.6 °F 30.2 °F 81% 30.12 in 10.0 mi Calm Calm - N/A   Scattered Clouds
4:35 AM 33.8 °F 30.2 °F 87% 30.12 in 10.0 mi Calm Calm - N/A   Mostly Cloudy
4:55 AM 33.8 °F 30.2 °F 87% 30.12 in 10.0 mi Calm Calm - N/A   Scattered Clouds
5:14 AM 33.8 °F 30.2 °F 87% 30.11 in 10.0 mi Calm Calm - N/A   Clear
5:35 AM 32.0 °F 30.2 °F 93% 30.11 in 10.0 mi Calm Calm - N/A   Clear
5:55 AM 32.0 °F 30.2 °F 93% 30.11 in 10.0 mi Calm Calm - N/A   Clear
6:14 AM 30.2 °F 30.2 °F 100% 30.11 in 10.0 mi Calm Calm - N/A   Clear
6:35 AM 30.2 °F 28.4 °F 93% 30.12 in 10.0 mi Calm Calm - N/A   Clear
6:55 AM 30.2 °F 28.4 °F 93% 30.12 in 10.0 mi Calm Calm - N/A   Clear
7:14 AM 30.2 °F 28.4 °F 93% 30.12 in 10.0 mi Calm Calm - N/A   Scattered Clouds
7:35 AM 32.0 °F 30.2 °F 93% 30.13 in 10.0 mi Calm Calm - N/A   Mostly Cloudy
7:55 AM 33.8 °F 32.0 °F 93% 30.14 in 10.0 mi Calm Calm - N/A   Scattered Clouds
8:15 AM 35.6 °F 33.8 °F 93% 30.15 in 10.0 mi Calm Calm - N/A   Scattered Clouds
8:35 AM 39.2 °F 32.0 °F 75% 30.15 in 10.0 mi Calm Calm - N/A   Clear
8:54 AM 41.0 °F 28.4 °F 61% 30.16 in 10.0 mi Calm Calm - N/A   Clear
9:15 AM 42.8 °F 23.0 °F 46% 30.17 in 10.0 mi Calm Calm - N/A   Clear
9:35 AM 44.6 °F 24.8 °F 46% 30.17 in 10.0 mi Calm Calm - N/A   Clear
9:54 AM 44.6 °F 23.0 °F 43% 30.17 in 10.0 mi Calm Calm - N/A   Clear
10:15 AM 44.6 °F 21.2 °F 39% 30.17 in 10.0 mi Calm Calm - N/A   Clear
10:35 AM 44.6 °F 23.0 °F 43% 30.18 in 10.0 mi Calm Calm - N/A   Clear
10:54 AM 46.4 °F 23.0 °F 40% 30.17 in 10.0 mi Calm Calm - N/A   Clear
11:15 AM 48.2 °F 23.0 °F 37% 30.18 in 10.0 mi WNW 9.2 mph - N/A   Clear
11:35 AM 48.2 °F 23.0 °F 37% 30.18 in 10.0 mi Calm Calm - N/A   Clear
11:54 AM 48.2 °F 24.8 °F 40% 30.18 in 10.0 mi NNW 4.6 mph - N/A   Clear
12:15 PM 48.2 °F 24.8 °F 40% 30.18 in 10.0 mi West 9.2 mph - N/A   Clear
12:34 PM 50.0 °F 24.8 °F 37% 30.18 in 10.0 mi NW 12.7 mph 18.4 mph N/A   Clear
12:55 PM 51.8 °F 24.8 °F 35% 30.17 in 10.0 mi WNW 10.4 mph 17.3 mph N/A   Scattered Clouds
1:15 PM 51.8 °F 23.0 °F 33% 30.17 in 10.0 mi NW 11.5 mph 19.6 mph N/A   Scattered Clouds
1:34 PM 51.8 °F 24.8 °F 35% 30.17 in 10.0 mi WNW 13.8 mph 17.3 mph N/A   Clear
1:55 PM 51.8 °F 24.8 °F 35% 30.17 in 10.0 mi NNW 10.4 mph - N/A   Scattered Clouds
2:15 PM 53.6 °F 24.8 °F 33% 30.16 in 10.0 mi NNW 10.4 mph 23.0 mph N/A   Scattered Clouds
2:34 PM 53.6 °F 24.8 °F 33% 30.16 in 10.0 mi WNW 9.2 mph 19.6 mph N/A   Clear
2:55 PM 55.4 °F 26.6 °F 33% 30.15 in 10.0 mi NW 8.1 mph - N/A   Scattered Clouds
3:15 PM 53.6 °F 24.8 °F 33% 30.15 in 10.0 mi WNW 6.9 mph 20.7 mph N/A   Scattered Clouds
3:35 PM 55.4 °F 26.6 °F 33% 30.14 in 10.0 mi WNW 9.2 mph - N/A   Clear
4:34 PM 55.4 °F 24.8 °F 31% 30.12 in 10.0 mi West 10.4 mph - N/A   Clear
4:54 PM 55.4 °F 24.8 °F 31% 30.12 in 10.0 mi NW 6.9 mph 16.1 mph N/A   Clear
5:15 PM 55.4 °F 23.0 °F 29% 30.11 in 10.0 mi West 10.4 mph - N/A   Clear
5:35 PM 55.4 °F 23.0 °F 29% 30.11 in 10.0 mi NNW 15.0 mph 21.9 mph N/A   Clear
5:54 PM 55.4 °F 21.2 °F 26% 30.11 in 10.0 mi NNW 11.5 mph - N/A   Clear
6:15 PM 55.4 °F 21.2 °F 26% 30.11 in 10.0 mi NW 9.2 mph - N/A   Clear
6:34 PM 53.6 °F 21.2 °F 28% 30.11 in 10.0 mi WNW 6.9 mph 16.1 mph N/A   Clear
6:55 PM 53.6 °F 21.2 °F 28% 30.11 in 10.0 mi NNW 4.6 mph - N/A   Clear
7:35 PM 51.8 °F 21.2 °F 30% 30.11 in 10.0 mi WNW 4.6 mph - N/A   Clear
8:14 PM 50.0 °F 24.8 °F 37% 30.11 in 10.0 mi Calm Calm - N/A   Clear
8:35 PM 48.2 °F 23.0 °F 37% 30.11 in 10.0 mi Calm Calm - N/A   Clear
8:55 PM 48.2 °F 26.6 °F 43% 30.11 in 10.0 mi Calm Calm - N/A   Clear
9:14 PM 48.2 °F 26.6 °F 43% 30.11 in 10.0 mi Calm Calm - N/A   Clear
9:35 PM 46.4 °F 30.2 °F 53% 30.10 in 10.0 mi Calm Calm - N/A   Clear
9:55 PM 46.4 °F 30.2 °F 53% 30.10 in 10.0 mi Calm Calm - N/A   Clear
10:14 PM 46.4 °F 30.2 °F 53% 30.10 in 10.0 mi Calm Calm - N/A   Clear
10:35 PM 46.4 °F 30.2 °F 53% 30.10 in 10.0 mi Calm Calm - N/A   Clear
10:55 PM 46.4 °F 28.4 °F 50% 30.10 in 10.0 mi Calm Calm - N/A   Clear
11:14 PM 46.4 °F 28.4 °F 50% 30.09 in 10.0 mi Calm Calm - N/A   Clear
11:35 PM 46.4 °F 28.4 °F 50% 30.09 in 10.0 mi Calm Calm - N/A   Clear
11:55 PM 46.4 °F 28.4 °F 50% 30.08 in 10.0 mi Calm Calm - N/A   Scattered Clouds